Powrót do katalogu

ATLAS 5 CENTAUR DEB

AktywnyHEO
NORAD 43982·DEBRIS·🇺🇸 United States

Wystrzelony Sep 17, 2014 z Cape Canaveral Space Force Station

Loading…

Następne Przeloty (najbliższe 24 godziny)

TLE

ŚwieżeSource: Space-Track

Epoka: Sep 8, 2026, 08:38 UTC

1 43982U 14055AM  26251.36022196 -.00000019  00000-0  00000-0 0  9997
2 43982  19.0259 184.8034 4717681  93.5289 319.4248  1.75459340 51276

Śledź ATLAS 5 CENTAUR DEB w czasie rzeczywistym z AllMySat

Download on the App Store